Regional Weather Roundup
Issued by NWS

Home | Current Version | Previous Version | Text Only | Print | Product List | Glossary Off
Versions: 1 2 3 4 5 6 7 8 9 10 11 12 13 14 15 16 17 18 19 20 21 22 23 24 25 26 27 28 29 30 31 32 33 34 35 36 37 38 39 40 41 42 43 44 45 46 47 48 49 50

000
ASUS43 KIND 300609
RWRIN

WEATHER ROUNDUP FOR INDIANA
NATIONAL WEATHER SERVICE INDIANAPOLIS IN
200 AM EDT THU OCT 30 2014

NOTE: "FAIR" INDICATES FEW OR NO CLOUDS BELOW 12,000 FEET WITH NO
SIGNIFICANT WEATHER AND/OR OBSTRUCTIONS TO VISIBILITY.

* - STATION DOES NOT REPORT WEATHER SUCH AS PRECIPITATION OR FOG.

+ - STATION NOT QUALITY CONTROLLED BY THE NATIONAL WEATHER SERVICE.
    USE DATA WITH CAUTION...ESPECIALLY DEWPOINT AND RELATIVE
    HUMIDITY OBSERVATIONS.

INZ001>003-010>013-019-020-300700-
NORTHWEST INDIANA

CITY           SKY/WX    TMP DP  RH WIND       PRES   REMARKS
GARY /AIRPORT/ CLEAR     41  35  77 SW5       30.14S
KNOX *+        CLOUDY    43  36  75 CALM      30.13S
LA PORTE +     CLOUDY    45  37  72 SW5       30.13S
6HR MIN TEMP:  45; 6HR MAX TEMP:  46;

MICHIGAN CITY+ CLOUDY    43  34  70 CALM      30.13R
MONTICELLO +   MOCLDY    38  35  89 CALM      30.14S
RENSSELAER +   PTCLDY    36  34  93 SW3       30.15R
VALPARAISO     CLOUDY    44  35  70 CALM      30.13S
6HR MIN TEMP:  44; 6HR MAX TEMP:  45;


$$

LMZ046-743>745-300700-
SOUTHERN LAKE MICHIGAN

STATION/POSITION TIME  TEMP WIND        PRES
                       AIR  DIR/SP/G
                 (UTC) (F)  (DEG/KT/KT) (MB)
MICHIGAN CITY    0600   46  160/  5/  7   N/A

$$

INZ004-005-014>016-021>024-300700-
NORTH CENTRAL INDIANA

CITY           SKY/WX    TMP DP  RH WIND       PRES   REMARKS
GOSHEN         CLOUDY    43  38  82 W3        30.12S
6HR MIN TEMP:  43; 6HR MAX TEMP:  44;

LOGANSPORT +   CLOUDY    41  36  81 CALM      30.14F
PERU/GRISSOM   CLOUDY    43  40  89 W3        30.13S
6HR MIN TEMP:  42; 6HR MAX TEMP:  44;

ROCHESTER +    CLOUDY    45  36  70 W3        30.14R
SOUTH BEND     CLOUDY    44  37  76 SW3       30.13S
6HR MIN TEMP:  44; 6HR MAX TEMP:  46;

WARSAW +       CLOUDY    43  36  75 W3        30.13S

$$

INZ006>009-017-018-025>027-300700-
NORTHEAST INDIANA

CITY           SKY/WX    TMP DP  RH WIND       PRES   REMARKS
ANGOLA *+      CLOUDY    43  37  81 CALM      30.11S
AUBURN +       CLOUDY    43  36  75 CALM      30.13S
FORT WAYNE     CLOUDY    43  36  76 W5        30.14R
6HR MIN TEMP:  43; 6HR MAX TEMP:  45;

HUNTINGTON +   CLOUDY   N/A N/A N/A W3        30.13S

$$

INZ028-029-035-036-043>045-051>053-300700-
WEST CENTRAL INDIANA

CITY           SKY/WX    TMP DP  RH WIND       PRES   REMARKS
GREENCASTLE +  MOCLDY    41  32  70 CALM      30.15S
LAFAYETTE      PTCLDY    39  35  86 CALM      30.15S
6HR MIN TEMP:  38; 6HR MAX TEMP:  44;

TERRE HAUTE    CLEAR     37  33  85 CALM      30.16S
6HR MIN TEMP:  37; 6HR MAX TEMP:  48;


$$

INZ030>032-037>040-046>048-054>057-064-065-300700-
CENTRAL INDIANA

CITY           SKY/WX    TMP DP  RH WIND       PRES   REMARKS
CP ATTERBURY + CLOUDY    43  34  70 CALM      30.16S
FRANKFORT +    PTCLDY    38  36  91 CALM      30.16R
INDIANAPOLIS   PTCLDY    42  31  64 CALM      30.13F
6HR MIN TEMP:  41; 6HR MAX TEMP:  46;

-EAGLE CREEK   PTCLDY    42  33  70 NW3       30.14S
6HR MIN TEMP:  42; 6HR MAX TEMP:  46;

KOKOMO *+      CLOUDY    43  34  70 W6        30.14F
MARION +       CLOUDY    41  35  76 NW3       30.14F
MT COMFORT *+  CLOUDY    43  30  61 CALM      30.14S
SHELBYVILLE    CLOUDY    44  35  70 NW3       30.14S
6HR MIN TEMP:  44; 6HR MAX TEMP:  48;

ZIONSVILLE +   CLOUDY    42  33  70 CALM      30.14F
6HR MIN TEMP:  42; 6HR MAX TEMP:  45;


$$

INZ033-034-041-042-049-050-058-059-300700-
EAST CENTRAL INDIANA

CITY           SKY/WX    TMP DP  RH WIND       PRES   REMARKS
MUNCIE         CLOUDY    43  35  73 NW5       30.13S
6HR MIN TEMP:  43; 6HR MAX TEMP:  45;


$$

INZ060-061-067>069-081>083-085>088-300700-
SOUTHWEST INDIANA

CITY           SKY/WX    TMP DP  RH WIND       PRES   REMARKS
EVANSVILLE     CLEAR     44  36  73 N6        30.17S
6HR MIN TEMP:  44; 6HR MAX TEMP:  52;

HUNTINGBURG *+ CLEAR     39  34  81 CALM      30.17S
6HR MIN TEMP:  39; 6HR MAX TEMP:  48;

WASHINGTON +   CLEAR     37  36  95 CALM      30.16S
6HR MIN TEMP:  37; 6HR MAX TEMP:  47;


$$

INZ062-063-066-070>080-084-089>092-300700-
SOUTH CENTRAL AND SOUTHEAST INDIANA

CITY           SKY/WX    TMP DP  RH WIND       PRES   REMARKS
BEDFORD +      CLEAR     41  34  75 CALM      30.15
BLOOMINGTON    PTCLDY    38  34  85 CALM      30.15S
6HR MIN TEMP:  38; 6HR MAX TEMP:  49;


$$




USA.gov is the U.S. government's official web portal to all federal, state and local government web resources and services.